Location: Angola Crest Mobile Home Park
(38.6696°N, 75.1557°W)
Time: 15:35:17
(UTC+00:00)

Daily predictions for brighter satellites

Satellite Brightness Start Highest point End
(mag) Time Altitude Azimuth Time Altitude Azimuth Time Altitude Azimuth
H-2A R/B 2.6 22:01:40 10° SW 22:03:20 20° S 22:06:14 10° ESE
Cosmos 2058 Rocket 3.3 22:00:08 10° S 22:04:35 79° W 22:09:01 10° N
USA 234 3.4 21:58:28 10° NE 22:04:59 67° SE 22:11:28 10° SW
COSMO-SKYMED 1 4.1 22:05:16 10° NE 22:08:09 17° E 22:11:01 10° SE
Cosmos 2344 3.8 22:00:36 10° S 22:08:20 51° ESE 22:15:19 10° NE
Cosmos-2242 3.7 22:04:31 10° SSE 22:08:27 35° E 22:12:24 10° NNE
Cosmos 1140 Rocket 4.3 22:06:23 10° N 22:10:47 27° ENE 22:15:07 10° ESE
BREEZE-M DEB (TANK) 3.4 22:10:41 10° WNW 22:11:52 14° NNW 22:13:04 10° NNE
DMSP B5D2-2 4.1 22:06:59 10° NNE 22:12:13 86° ESE 22:17:26 10° SSW
SL-16 R/B 2.5 22:06:52 10° NNW 22:12:33 77° WSW 22:18:11 10° SSE
Hubble Space Telescope 3.6 22:12:45 10° SW 22:14:20 12° SSW 22:15:55 10° S
Cosmos 2151 3.1 22:10:16 10° N 22:14:33 80° W 22:18:47 10° S
Cosmos 1544 3.3 22:12:06 10° NNW 22:15:19 62° W 22:18:30 10° S
AQUARIUS 4.5 22:11:47 10° SE 22:16:00 44° ENE 22:20:15 10° N
Cosmos 1500 2.9 22:15:15 10° N 22:18:48 86° E 22:22:18 10° S
Cosmos 2221 4.4 22:18:06 10° E 22:19:12 11° E 22:20:12 10° ENE
Lacrosse 4 Rocket 2.5 22:18:38 10° N 22:22:14 25° NE 22:25:45 10° ESE
Cosmos 1943 3.6 22:18:59 10° N 22:24:15 39° ENE 22:29:30 10° SE
USA 306 2.6 22:25:44 10° NNW 22:27:29 21° NE 22:28:11 18° ENE
Cosmos 44 3.5 22:22:46 10° NNW 22:28:08 89° ENE 22:33:11 10° SSE
Cosmos 2026 Rocket 4.5 22:29:33 10° SSE 22:35:14 39° E 22:41:00 10° NNE
CZ-4B R/B 3.7 22:32:24 10° SE 22:37:14 45° ENE 22:41:58 10° N
USA 305 3.5 22:39:26 10° NNW 22:42:50 29° NE 22:44:32 20° ENE
SL-08 R/B 4.1 22:38:55 11° NE 22:42:51 30° E 22:46:55 10° SSE
Cosmos 1844 4.3 22:39:57 10° S 22:45:09 36° ESE 22:49:16 15° NE
ISS -3.8 22:42:49 10° NW 22:46:09 63° NE 22:48:44 15° ESE
Meteor 2-2 Rocket 4.3 22:41:08 10° S 22:46:46 66° E 22:52:33 10° NNE
APEX 3.0 22:44:12 10° SSW 22:47:18 60° WNW 22:49:43 13° NNE
Cosmos 1812 2.7 22:44:54 10° SSW 22:48:34 75° W 22:52:15 10° N
ATLAS CENTAUR R/B 3.2 22:46:35 10° NNW 22:51:25 56° NE 23:00:47 10° SE
Cosmos 1092 Rocket 4.0 22:45:36 10° SSE 22:51:32 54° E 22:57:30 10° NNE
Nadezhda 4 Rocket 4.1 22:46:19 10° S 22:52:29 76° W 22:58:37 10° N
Radarsat Rocket 4.1 22:47:31 10° SE 22:53:06 50° ENE 22:58:50 10° N
Cosmos 407 Rocket 3.6 22:49:05 10° N 22:54:04 48° ENE 22:58:59 10° SE
SKYMED 2 3.6 22:52:10 10° NNE 22:56:28 60° E 23:00:44 10° S
Cosmos 1933 3.4 22:53:35 10° S 22:57:28 51° E 23:00:40 14° NNE
Cosmos 2251 Rocket 3.6 22:53:25 10° N 22:58:42 58° ENE 23:03:58 10° SSE
SMAP 4.2 22:55:10 10° S 22:59:37 46° W 23:04:07 10° NNW
Meteor 1-25 Rocket 4.1 22:54:18 10° N 22:59:57 71° E 23:05:29 10° SSE
SL-8 R/B 3.8 22:56:23 10° NW 23:01:05 55° NNE 23:03:35 26° E
Cosmos 2056 Rocket 3.9 22:56:36 10° S 23:01:38 43° ESE 23:04:52 21° NE
Cosmos 1812 Rocket 4.3 23:07:03 10° SSW 23:11:16 53° W 23:15:33 10° N
Meteor 1-26 Rocket 4.3 23:07:14 10° SSE 23:12:32 52° E 23:17:26 13° NNE
ATLAS 2AS CENTAUR R/B 3.4 23:07:07 10° NNW 23:12:59 29° NE 23:14:16 27° ENE
SEDSat Delta rocket 4.4 23:09:54 10° WSW 23:14:51 36° S 23:17:18 22° SE
Cosmos 1818 4.1 23:12:01 10° SW 23:17:20 56° NW 23:21:34 16° NNE
Lacrosse 5 1.9 23:12:40 10° SW 23:17:43 75° NW 23:20:16 29° NE
Cosmos 1844 Rocket 2.5 23:14:01 10° SSW 23:19:34 83° ESE 23:23:25 21° NNE
Cosmos 2263 Rocket 4.4 23:15:37 10° WSW 23:19:42 21° NW 23:23:48 10° N
Helios 1A 4.4 23:20:54 10° N 23:24:44 37° WNW 23:28:33 10° SW
Cosmos 1190 Rocket 4.1 23:20:12 10° N 23:25:24 53° ENE 23:29:25 16° SE
Cosmos 1371 Rocket 3.9 23:20:35 10° S 23:25:46 75° ESE 23:28:34 28° NNE
Cosmos 1782 3.8 23:28:25 10° SSW 23:32:10 45° W 23:35:34 12° N
Meteor 1-5 Rocket 4.2 23:27:49 10° N 23:33:32 67° E 23:39:22 10° SSE
ADEOS 3.5 23:33:58 10° SSE 23:39:11 90° ENE 23:44:26 10° NNW
USA 307 2.7 23:35:39 10° NW 23:39:26 69° SW 23:39:26 69° SW
SME Rocket 4.0 23:35:38 11° SSE 23:40:32 63° ENE 23:48:15 10° N
Cosmos 1420 Rocket 4.2 23:37:29 10° SSW 23:42:41 72° WNW 23:45:26 29° N
Cosmos 1603 4.0 23:38:00 10° NNW 23:43:39 67° WSW 23:49:12 10° S
COSMO-SKYMED 1 3.9 23:40:25 10° N 23:44:26 38° WNW 23:48:26 10° SW
Cosmos 1241 Rocket 4.4 23:40:29 10° SSW 23:46:55 86° WNW 23:49:32 38° NNE
USA 234 4.2 23:44:05 22° NNE 23:47:43 39° NNW 23:53:38 10° W
Cosmos 1624 Rocket 4.2 23:44:40 10° SSW 23:49:52 69° WNW 23:52:00 36° N
